#timestamp,LO_Frequency,Hit,StdDev 
1518570015.4,286047002.3,N
1518570035.3,286046999.9,N
1518570055.1,286047000.1,N
1518570056.0,286047000.1,N
1518570075.8,286047000.3,N
1518570095.7,286046999.9,N
1518570115.5,286047000.3,N
1518570135.3,286046999.9,N
1518570155.2,286047000.3,N
1518570175.0,286047000.3,N
1518570175.9,286047000.3,N
1518570195.8,286047002.8,N
1518570215.6,286047000.3,N
1518570235.4,286047000.0,N
1518570255.3,286047000.1,N
1518570275.1,286047000.1,N
1518570295.8,286046999.9,N
1518570315.7,286047002.1,N
1518570335.5,286047002.5,N
1518570355.4,286047001.6,N
1518570375.2,286047001.9,N
1518570395.0,286047001.8,N
1518570395.9,286047001.8,N
1518570415.8,286047002.5,N
1518570435.6,286047002.2,N
1518570455.5,286047002.5,N
1518570475.3,286047001.8,N
1518570495.1,286047002.0,N
1518570515.9,286047001.8,N
1518570535.7,286047001.7,N
1518570555.6,286047001.5,N
1518570575.4,286047001.5,N
1518570595.2,286047001.8,N
1518570615.1,286047002.6,N
1518570616.0,286047002.6,N
1518570635.8,286047001.6,N
1518570655.7,286047002.0,N
1518570675.5,286047002.1,N
1518570695.3,286046999.7,N
1518570715.2,286046999.9,N
1518570735.0,286046999.9,N
1518570735.9,286046999.9,N
1518570755.8,286047000.9,N
1518570775.6,286047000.5,N
1518570795.4,286046999.9,N
1518570815.3,286046999.8,N
1518570835.1,286047002.6,N
1518570855.8,286047004.2,Y
1518570875.7,286047002.3,P
1518570895.5,286047000.3,N
1518570915.4,286047000.4,N
1518570935.2,286046999.9,N
1518570955.1,286047000.4,N
1518570956.0,286047000.4,N
1518570975.8,286047000.7,N
1518570995.6,286046998.2,N
1518571015.5,286046998.3,N
1518571035.3,286046998.2,N
1518571055.1,286046998.5,N
1518571075.9,286047001.0,N
1518571095.7,286047000.6,N
1518571115.6,286047000.7,N
1518571135.4,286047000.9,N
1518571155.2,286046998.1,N
1518571175.1,286047000.2,N
1518571176.0,286047000.2,N
1518571195.8,286047001.2,N
1518571215.7,286047000.7,N
1518571235.5,286047000.5,N
1518571255.3,286047000.7,N
1518571275.2,286047001.1,N
1518571295.0,286046998.4,N
1518571295.9,286046998.4,N
1518571315.8,286046998.7,N
1518571335.6,286046999.2,N
1518571355.4,286046998.3,N
1518571375.3,286046998.3,N
1518571395.1,286046998.7,N
1518571415.8,286046999.0,N
1518571435.7,286046998.8,N
1518571455.5,286046999.3,N
1518571475.4,286046998.2,N
1518571495.2,286047000.5,N
1518571515.0,286047000.6,N
1518571515.9,286047000.6,N
1518571535.8,286046998.2,N
1518571555.6,286047000.3,N
1518571575.4,286047000.5,N
1518571595.3,286047000.0,N
1518571615.1,286047000.6,N
1518571635.9,286047001.1,N
1518571655.7,286047000.8,N
1518571675.5,286047000.5,N
1518571695.4,286047000.9,N
1518571715.2,286047002.2,N
1518571735.0,286047002.3,N
1518571735.9,286047002.3,N
1518571755.8,286046999.9,N
1518571775.6,286046998.4,N
1518571795.5,286047000.5,N
1518571815.3,286046998.6,N
1518571835.1,286047001.1,N
1518571855.9,286047000.9,N
1518571875.7,286047001.2,N
1518571895.6,286047000.8,N
1518571915.4,286047000.4,N
1518571935.2,286047000.2,N
1518571955.1,286047002.4,N
1518571956.0,286047002.4,N
1518571975.8,286047002.3,N
1518571995.6,286047002.3,N
1518572015.5,286046999.9,N
1518572035.3,286046999.8,N
1518572055.2,286047000.9,N
1518572075.9,286047000.8,N
1518572095.7,286046998.5,N
1518572115.6,286046998.2,N
1518572135.4,286047000.9,N
1518572155.2,286047000.7,N
1518572175.1,286047000.6,N
1518572176.0,286047000.6,N
1518572195.8,286047000.6,N
1518572215.7,286047001.2,N
1518572235.5,286047000.7,N
1518572255.3,286047001.2,N
1518572275.2,286047000.7,N
1518572295.0,286046998.1,N
1518572295.9,286046998.1,N
1518572315.8,286047000.7,N
1518572335.6,286047001.2,N
1518572355.4,286047000.5,N
1518572375.3,286047001.0,N
1518572395.1,286047000.0,N
1518572415.8,286047001.0,N
1518572435.7,286047001.2,N
1518572455.5,286047000.2,N
1518572475.4,286047002.5,N
1518572495.2,286047003.9,Y
1518572515.0,286047004.3,P
1518572515.9,286047004.3,N
1518572535.8,286047003.8,N
1518572555.6,286047001.7,N
1518572575.5,286047004.2,N
1518572595.3,286047001.7,N
1518572615.1,286047002.7,N
1518572635.9,286047000.5,N
1518572655.7,286047000.7,N
1518572675.6,286046998.1,N
1518572695.4,286046998.1,N
1518572715.2,286046998.2,N
1518572735.1,286046998.8,N
1518572736.0,286046998.8,N
1518572755.8,286046999.3,N
1518572775.6,286046999.1,N
1518572795.5,286046999.4,N
1518572815.3,286046996.5,N
1518572835.2,286046996.9,N
1518572855.9,286046997.8,N
1518572875.7,286046995.3,N
1518572895.6,286046997.4,N
1518572915.4,286046995.1,N
1518572935.2,286046997.8,N
1518572955.1,286046997.7,N
1518572956.0,286046997.7,N
1518572975.8,286046995.0,N
1518572995.7,286046997.6,N
1518573015.5,286046996.9,N
1518573035.3,286046997.2,N
1518573055.2,286046997.4,N
1518573075.9,286046995.4,N
1518573095.7,286046997.8,N
1518573115.6,286046995.0,N
1518573135.4,286046994.9,N
1518573155.3,286046997.9,N
1518573175.1,286046994.9,N
1518573176.0,286046994.9,Y
1518573195.8,286046996.5,P
1518573215.7,286046997.2,P
1518573235.5,286046997.2,P
1518573255.3,286046997.7,Y
1518573275.2,286047000.7,P
1518573295.0,286046998.2,N
1518573295.9,286046998.2,N
1518573315.8,286046998.7,N
1518573335.6,286046998.8,N
1518573355.4,286046999.0,N
1518573375.3,286046998.6,N
1518573395.1,286046998.9,N
1518573415.9,286046999.6,N
1518573435.7,286046997.2,Y
1518573455.5,286046997.0,P
1518573475.4,286046997.8,N
1518573495.2,286046997.8,P
1518573515.0,286046994.9,Y
1518573515.9,286046994.9,P
1518573535.8,286046996.9,N
1518573555.6,286046998.1,N
1518573575.5,286046998.7,N
1518573595.3,286046998.7,N
